Regional Weather Roundup
Issued by NWS Charleston, SC

Current Version | Previous Version | Graphics & Text | Print | Product List | Glossary On
Versions: 1 2 3 4 5 6 7 8 9 10 11 12 13 14 15 16 17 18 19 20 21 22 23 24 25 26 27 28 29 30 31 32 33 34 35 36 37 38 39 40 41 42 43 44 45 46 47 48 49 50
000
ASUS42 KCHS 010926
RWRCHS

REGIONAL WEATHER ROUNDUP
NATIONAL WEATHER SERVICE CHARLESTON SC
400 AM EST SUN MAR 01 2015

NOTE: "FAIR" INDICATES FEW OR NO CLOUDS BELOW 12,000 FEET WITH NO
SIGNIFICANT WEATHER AND/OR OBSTRUCTIONS TO VISIBILITY.

NOT ALL STATIONS ARE QUALITY CONTROLLED BY THE NATIONAL
WEATHER SERVICE. USE DATA WITH CAUTION...ESPECIALLY
DEWPOINT OBSERVATIONS.

SCZ027-030-031-034>040-042>050-011000-
...SOUTHEAST SOUTH CAROLINA...

CITY           SKY/WX    TMP DP  RH WIND       PRES   REMARKS
N CHARLESTON   LGT RAIN  40  35  83 NE9       30.49F WCI  34
WATERFRONT PRK   N/A     43 N/A N/A N15         N/A
MOUNT PLEASANT LGT RAIN  39  36  87 N5        30.48F WCI  36
PINOPOLIS        N/A     41  34  75 NE13      30.42
MONCKS CORNER  CLOUDY    39  36  87 NE7       30.50F WCI  34
SUMMERVILLE    CLOUDY    37  37 100 NE6       30.49F WCI  33
BEAUFORT MCAS  CLOUDY    41  38  89 NE10      30.47F
BEAUFORT ARPT  CLOUDY    41  39  93 N13       30.46S
HILTON HEAD IS CLOUDY    43  39  87 N10       30.47R
WALTERBORO     DRIZZLE   41  37  87 NE5       30.50S
ALLENDALE      CLOUDY    39  37  93 N5        30.49S WCI  36

...SOUTHERN MIDLANDS AND PEE DEE...

CITY           SKY/WX    TMP DP  RH WIND       PRES   REMARKS
GEORGETOWN     NOT AVBL
KINGSTREE      NOT AVBL
ORANGEBURG     LGT RAIN  38  29  70 NE12      30.51F WCI  30
BARNWELL       LGT RAIN  37  36  93 N6        30.51S WCI  33
AIKEN          RAIN      36  36 100 N7        30.55S WCI  30
MANNING        RAIN      37  32  81 N6        30.52F WCI  33
COLUMBIA       LGT RAIN  36  31  82 NE10      30.54F WCI  28
SUMTER         LGT RAIN  35  29  78 N10       30.52F WCI  28
FLORENCE       CLOUDY    35  30  82 N10       30.54F WCI  27
MYRTLE BEACH   CLOUDY    39  27  60 N8        30.54F WCI  34
N MYRTLE BEACH CLOUDY    39  29  67 NE9       30.52F WCI  33

$$

GAZ063-065-086>088-099>101-113>116-118-119-134>141-150-011000-
...SOUTHEAST GEORGIA...

CITY           SKY/WX    TMP DP  RH WIND       PRES   REMARKS
SAVANNAH ARPT  CLOUDY    42  38  85 NE9       30.46F
HUNTER AAF     NOT AVBL
FORT STEWART   CLOUDY    44  39  85 NE6       30.44F
STATESBORO     RAIN      40  40 100 N7        30.49R WCI  35
SYLVANIA       DRIZZLE   39  39 100 NE6       30.49S WCI  35
CLAXTON        CLOUDY    41  41 100 NE5       30.48S

...CSRA...CENTRAL AND FAR SOUTHEAST GEORGIA...

CITY           SKY/WX    TMP DP  RH WIND       PRES   REMARKS
THOMSON        CLOUDY    37  37 100 NE12G17   30.55F WCI  30
AUGUSTA-BUSH   LGT RAIN  38  37  97 N6        30.53S FOG     WCI  33
AUGUSTA-DANIEL HVY RAIN  39  36  89 N8        30.52S FOG     WCI  33
SWAINSBORO     DRIZZLE   41  41 100 NE6       30.50S
VIDALIA        CLOUDY    41  41 100 NE9       30.47F
EASTMAN        CLOUDY    42  42 100 NE7       30.50S FOG
HAZLEHURST     DRIZZLE   44  44 100 NE7       30.45F
ALMA           CLOUDY    44  42  93 N6        30.44  FOG
WAYCROSS       CLOUDY    48  46  93 NE8       30.43S
JESUP          DRIZZLE   46  45  93 NE8       30.44F
BAXLEY         CLOUDY    45  43  93 N5        30.45R FOG
BRUNSWICK      CLOUDY    46  45  93 NE8       30.43F
SAINT SIMONS   CLOUDY    47  45  93 N15G25    30.42F

$$

SCZ027-028-034-036>038-045-046-048>050-GAZ119-141-011000-
...LAKE AND SUPPLEMENTAL COASTAL OBSERVATIONS...

STATION/POSITION TIME  TEMP    WIND        PRES    WAVE   SWELL
                       AIR SEA DIR/SP/G            HT/PER HT/PER/DIR
                 (UTC) (F)     (DEG/KT/KT) (MB)    (FT/S) (FT/S/D)
UPR LAKE MARION  NOT AVBL
WINYAH BAY       0800   41      20/  7     1032.0F
LAKE MURRAY      0900   34      10/  3/  9 1033.5F
ACE BASIN NERRS  NOT AVBL
FORT PULASKI     0900   44 48   30/ 11/ 14 1031.4F
SAPELO ISLAND    0900   46      30/ 14     1030.0F

$$

ANZ835-935-AMZ111-154-330-350-352-354-370-450-454-472-011000-
...C-MAN AND BUOY OBSERVATIONS...

STATION/POSITION TIME  TEMP    WIND        PRES    WAVE   SWELL
                       AIR SEA DIR/SP/G            HT/PER HT/PER/DIR
                 (UTC) (F)     (DEG/KT/KT) (MB)    (FT/S) (FT/S/D)
BUOY 41004       0850   57 66   30/ 23/ 27 1029.8F  10/ 8   5/11
BUOY 41008       0850   51 53   40/ 21/ 27 1029.0F   7/ 7   3/ 70/ 8
FOLLY BEACH CMAN 0900   41      20/ 14/ 16 1032.2F
CAPERS NEARSHORE NOT AVBL
FRIPP NEARSHORE  0800   44      40/ 17/ 21 1030.7F


STATION/POSITION TIME  TEMP    WIND        PRES    WAVE   SWELL
                       AIR SEA DIR/SP/G            HT/PER HT/PER/DIR
                 (UTC) (F)     (DEG/KT/KT) (MB)    (FT/S) (FT/S/D)
5E ST. MARYS GA  0821      52                N/A     7/ 8   2/ 70/11
FRYING PAN BUOY  0850   55 61   50/ 17/ 21 1032.4F   8/ 7   2/ 90/ 9
BUOY 41025       NOT AVBL
CAPE LOOKOUT NC  0900   38      10/ 11/ 13 1034.4F
BUOY 41002       0850   66 71   80/ 19/ 23 1032.0F   9/10   3/ 40/10
BUOY 41010       0820   71 74   90/ 21/ 25 1027.0F
ST AUGUSTINE FL  0900   54     360/ 19/ 20 1028.4F


$$


USA.gov is the U.S. government's official web portal to all federal, state and local government web resources and services.